Location: Albuquerque Trailhead
(34.7934°N, 106.3736°W)
Time: 02:29:37
(UTC+00:00)

Geosat - Pass Details

Date: 20 June 2021
Orbit: 762 x 766 km, 108.0° (Epoch: 27 July)

Event Time Altitude Azimuth Distance (km) Brightness Sun altitude
Exits shadow 05:23:07 65° 247° (WSW) 839 4.1 -26.8°
Maximum altitude 05:23:07 65° 247° (WSW) 839 4.1 -26.8°
Drops below altitude 10° 05:28:06 10° 329° (NNW) 2,303 7.5 -27.2°
Sets 05:30:24 0° 333° (NNW) 3,233 8.5 -27.4°
